sat.trackr.live / text

‹ back to catalog

STARLINK-11335 [DTC]

NORAD 61687 · 2024-195A

PAYLOAD ACTIVE UNKNOWN

§ Identity

Operator
Country
US
Launch date
2024-10-30
Launch site
AFWTR
Launch vehicle
Mass (kg)
RCS (m²)

Purposes: comms

External: N2YO · Heavens-Above · Gunter

§ Orbital elements

Epoch: 2026-09-21T21:15:06.704064Z

Period
91.74 min
Inclination
53.1599°
Eccentricity
0.0001865
Mean motion
15.69720488 rev/d
Perigee alt
358.4 km
Apogee alt
361.0 km
Semi-major
6,737.8 km
B*
1.7139e-5
RAAN
139.4357°
Arg perigee
59.8407°
Mean anomaly
300.2796°
Rev number
10,984

§ Raw data

STARLINK-11335 [DTC]1 61687U 24195A   26264.88549426  .00001488  00000+0  17139-4 0  99902 61687  53.1599 139.4357 0001865  59.8407 300.2796 15.69720488109846

JSON: /api/v1/satellites/61687 · /tle

For live sub-satellite position, see the globe view (requires WebGL).

§ Visibility from observer

Set your observer location to see the next 7 days of passes ≥ 10°. The values pass through the URL so the page stays shareable.

No JS? Fill the form by hand. The geolocation button needs JavaScript.